Theta_e
286 286 286 285 285 284 284 283 283 282 281 281 281 281 282 283 284 283 283 283 281 279 278 278 276 276 275 274 275 275 275 275 275 275 276 277 279 280 281 283 284 285 288 291 292 293 293 293 292 292 293 293 293 296 299 299 300 301 303 304 305 309 317 318 318 318 318 320 322 322 321 321 319 317 316 315 315 315 315 316 317 318 318 314 312
286 286 285 285 285 284 284 283 283 282 281 281 281 281 283 284 283 283 282 282 280 278 278 278 275 275 275 273 273 273 273 274 275 275 276 277 279 280 281 282 283 285 287 290 292 293 293 293 292 292 292 293 293 296 299 300 300 302 304 304 305 310 317 318 317 317 316 318 320 320 319 319 318 318 317 316 315 315 313 315 317 317 315 313 312
286 285 285 285 285 284 284 283 283 282 282 281 281 282 283 283 283 282 281 281 280 277 277 277 275 274 274 272 272 271 271 272 273 275 276 277 279 280 280 281 282 284 287 290 291 292 293 292 292 292 293 293 293 295 298 300 300 302 303 303 305 311 317 318 317 317 316 316 317 318 318 318 317 317 317 316 316 315 313 315 317 316 314 313 312
286 285 285 285 285 284 284 283 283 282 282 281 281 282 283 283 283 282 281 280 280 278 277 276 274 272 272 272 271 271 271 271 273 274 275 276 277 279 279 280 282 284 287 290 291 291 292 292 292 292 293 293 293 295 298 300 300 302 303 303 305 312 317 317 318 318 317 317 316 317 318 317 317 318 318 318 317 316 315 316 318 317 315 313 312
285 285 285 285 284 284 283 283 283 282 281 281 281 282 283 283 282 282 280 279 279 278 277 275 273 271 271 271 271 270 270 270 272 274 274 275 276 277 278 279 281 284 287 289 290 290 291 292 292 292 293 293 293 295 297 300 300 301 303 303 305 312 316 317 318 318 318 318 317 316 318 318 318 318 318 319 319 317 317 318 318 318 316 315 314
285 285 285 284 284 284 283 283 282 282 281 281 282 282 283 283 282 281 281 280 279 278 276 274 272 270 270 270 270 270 270 270 271 272 274 275 276 277 278 279 281 283 286 289 290 290 290 291 292 293 293 293 293 294 296 299 300 301 303 303 305 312 316 316 317 318 318 319 318 316 316 317 318 318 318 320 319 317 317 317 317 317 317 316 315
285 285 284 284 284 284 284 283 283 282 281 281 281 282 282 282 282 281 281 280 279 277 276 273 271 269 269 269 270 270 270 270 271 272 273 274 276 277 278 279 281 283 285 288 290 290 290 291 292 293 293 294 293 294 295 298 299 301 302 303 305 312 316 316 317 317 317 318 317 316 315 316 317 318 318 319 316 314 314 316 317 318 316 316 315
285 285 284 284 284 284 283 283 283 282 281 280 281 282 283 282 282 281 281 279 278 276 275 274 272 270 270 270 270 271 271 271 272 273 274 274 275 277 278 279 281 283 285 287 289 290 290 291 292 293 294 294 294 294 295 297 298 300 302 303 305 311 315 316 316 317 316 316 316 315 315 315 316 318 318 318 316 314 315 315 317 317 316 316 314
285 285 284 284 283 283 283 282 282 281 280 280 281 282 282 282 282 281 281 280 279 276 274 273 273 272 271 271 271 272 272 273 273 274 274 274 274 276 278 279 280 282 284 286 287 289 289 290 291 293 294 294 294 294 294 296 298 300 302 303 304 310 314 315 316 316 316 316 315 314 315 314 315 317 317 317 317 317 317 317 317 317 316 315 313
285 285 284 283 283 282 282 282 281 280 279 280 281 282 282 283 282 282 281 280 279 277 275 273 273 272 271 271 272 272 273 275 275 275 275 274 274 275 277 278 280 282 283 284 286 288 289 290 291 293 294 294 294 293 294 296 298 300 302 302 303 309 313 314 315 315 314 314 313 313 313 313 314 316 316 317 318 317 317 317 317 316 315 315 313
285 284 284 283 282 281 281 281 280 279 279 280 281 282 282 282 282 281 281 280 278 277 277 275 274 273 272 272 273 273 275 276 276 276 275 274 274 275 276 277 278 280 281 283 285 287 289 290 291 292 293 293 293 293 294 296 298 300 302 302 302 307 313 314 315 315 314 313 313 313 313 313 314 316 316 316 317 317 317 316 316 315 315 314 313
284 284 283 282 281 280 280 280 279 279 279 280 281 281 282 282 282 281 280 279 278 278 278 276 275 274 273 273 274 275 276 277 277 276 276 275 275 275 276 277 277 278 280 282 284 285 287 289 291 292 293 293 293 293 293 295 298 300 302 302 301 305 312 315 315 315 314 314 313 313 314 314 315 316 315 315 316 316 316 315 314 315 314 313 313
284 283 282 282 281 280 279 279 279 279 279 280 280 281 282 282 281 280 279 279 279 279 278 278 276 276 275 274 275 276 277 278 278 277 277 276 276 276 276 277 278 279 279 281 283 285 286 288 289 291 292 293 293 293 293 295 298 300 301 302 301 304 310 315 315 315 314 315 315 314 315 315 315 316 315 315 316 316 315 314 314 314 314 313 312
284 283 282 281 280 279 279 278 278 278 279 280 280 281 282 281 280 279 278 278 278 277 277 277 276 276 276 275 276 277 279 279 279 278 277 277 276 276 277 277 278 280 280 281 282 284 285 286 288 290 291 293 293 293 293 295 298 300 301 301 302 304 309 313 315 315 314 315 315 316 316 317 317 317 316 315 316 316 315 314 314 314 314 313 313
283 282 281 280 280 279 278 278 278 278 279 279 280 281 281 281 279 278 277 275 275 275 275 275 275 276 277 277 277 279 280 281 280 279 278 277 277 277 277 278 278 280 281 281 282 284 285 285 286 288 290 292 293 293 293 295 297 299 301 302 303 305 309 312 314 314 315 315 316 316 316 317 318 318 317 316 316 316 316 314 314 314 314 313 313
283 282 281 280 279 278 277 277 277 278 279 279 280 280 281 280 278 277 275 274 274 274 275 274 275 276 277 278 278 279 281 281 280 279 279 279 278 277 277 278 278 279 280 281 282 283 284 285 286 287 289 291 292 293 293 294 296 299 301 302 303 305 308 312 313 314 314 315 315 316 316 317 317 317 317 317 316 315 315 314 314 314 313 312 312
282 281 280 279 278 277 276 276 277 278 279 279 279 280 280 279 277 276 275 274 273 274 274 274 275 276 277 278 278 278 280 282 280 280 280 279 279 278 278 278 278 279 280 281 282 283 284 285 285 286 288 290 291 292 292 294 296 299 301 302 303 305 308 311 312 313 314 314 315 315 316 316 316 316 317 317 316 315 314 314 313 313 313 311 311
281 280 279 278 277 276 276 276 277 278 278 278 279 279 279 278 276 274 273 273 273 273 272 273 274 275 276 278 278 277 279 281 281 280 280 280 279 278 279 279 279 279 280 281 283 283 284 285 285 286 287 289 291 291 292 293 295 299 301 301 302 304 308 310 311 312 313 313 314 315 315 315 315 316 316 316 316 316 314 313 313 313 312 311 311
281 279 278 277 276 275 275 276 276 277 278 278 278 278 279 278 275 274 273 272 272 273 271 271 272 274 274 276 277 277 278 279 281 281 281 281 280 279 279 280 280 280 280 281 282 283 284 285 285 285 287 288 290 291 292 293 295 298 300 300 301 304 307 310 311 311 311 311 312 313 313 314 314 315 315 315 316 316 314 313 314 314 312 311 311
279 278 277 276 275 275 275 276 276 277 277 277 277 278 278 277 275 274 273 272 272 272 270 269 270 272 273 275 277 278 278 278 280 281 282 283 282 281 280 280 280 280 281 282 282 283 284 284 285 286 287 288 289 290 291 292 295 298 299 300 301 303 307 311 312 311 311 310 310 311 312 312 313 313 314 314 315 316 314 313 313 314 313 311 310
278 277 276 275 275 275 275 275 276 277 277 276 277 277 277 276 275 273 272 272 271 270 269 269 270 272 272 273 276 278 277 277 278 281 282 282 283 283 282 281 281 281 281 282 283 283 284 284 285 286 287 288 289 290 291 292 294 297 300 301 302 303 306 310 311 311 311 310 309 310 310 311 312 312 313 313 314 314 313 313 313 314 314 312 310
277 276 275 275 274 275 275 275 276 277 277 276 276 277 277 276 275 273 272 271 269 268 268 269 270 271 272 273 274 276 277 277 279 281 282 282 283 284 283 283 282 282 282 283 283 283 284 284 285 286 287 289 289 290 291 291 294 297 300 300 301 302 305 309 310 310 310 309 309 309 309 309 310 311 311 312 314 314 313 312 313 314 314 313 311
276 275 275 274 274 274 275 275 276 276 277 276 276 277 277 276 275 273 271 270 268 268 268 269 270 270 271 273 273 273 275 278 279 281 282 282 283 284 284 284 284 283 283 283 284 284 284 285 285 286 287 288 289 290 291 291 293 297 299 300 300 301 304 307 309 309 308 308 308 308 308 309 309 309 310 311 313 314 313 313 313 313 313 313 312
275 275 274 274 274 274 274 275 275 276 276 276 275 276 276 276 275 273 272 269 268 268 268 269 269 270 271 272 272 272 274 276 278 280 281 282 283 284 285 285 285 285 285 285 285 286 286 286 286 286 287 287 288 290 290 291 293 296 298 300 301 302 304 306 308 308 307 307 307 308 308 309 309 310 310 311 313 313 313 312 312 312 312 312 311
275 274 274 274 273 274 274 274 275 276 276 276 275 275 276 276 274 273 272 270 268 268 269 269 269 270 271 272 272 272 272 275 277 278 280 282 283 285 285 285 286 286 286 286 287 287 288 287 287 287 288 288 288 289 290 291 292 295 299 300 301 301 303 306 307 307 307 306 307 308 308 309 310 310 311 311 311 312 311 311 311 310 309 309 309
274 274 274 273 273 274 274 274 274 275 276 276 275 274 275 276 274 272 272 271 268 268 269 269 269 270 271 271 271 271 272 273 274 276 278 280 283 285 286 286 287 287 287 288 288 289 289 289 289 288 289 289 289 290 290 291 293 296 299 300 300 301 303 305 307 307 307 307 307 308 309 309 309 309 310 310 310 310 311 310 310 309 309 309 309
274 274 273 273 273 273 274 274 274 274 275 276 275 274 274 275 274 271 270 270 268 268 269 269 269 270 271 271 270 270 271 271 273 274 275 277 280 283 286 287 289 289 289 289 289 289 290 290 290 289 289 290 290 291 291 292 295 297 299 300 300 301 303 305 307 308 309 308 308 308 308 308 308 308 308 310 311 311 311 310 309 308 309 309 309
274 273 273 273 273 273 273 273 273 274 274 275 276 274 273 274 274 272 270 268 267 267 268 268 269 270 271 270 270 270 271 271 272 273 274 275 277 281 285 287 289 290 290 290 290 290 290 290 290 290 290 290 291 291 292 294 296 298 300 300 300 301 303 304 306 307 308 308 307 307 306 306 307 308 309 310 311 311 311 310 309 308 309 309 309
273 273 273 273 273 273 273 273 273 273 274 274 275 275 273 272 273 273 272 270 268 268 268 268 268 270 270 269 269 270 270 271 272 273 274 275 277 279 283 287 288 290 291 291 291 291 291 291 291 291 291 291 291 292 293 295 297 299 300 300 300 301 303 304 305 306 307 307 306 306 306 307 307 308 309 310 310 310 310 309 308 308 308 308 308
273 272 272 272 272 273 272 272 273 273 273 273 274 275 275 274 272 272 273 272 271 270 270 269 269 269 270 269 269 269 270 271 272 273 274 276 278 280 283 286 288 290 292 292 291 291 292 292 292 292 292 292 292 293 294 296 298 299 300 300 300 301 303 304 305 306 307 307 307 307 306 306 307 308 308 309 309 308 308 308 307 307 308 308 307
272 272 272 272 272 272 272 272 272 272 273 273 273 274 275 275 275 274 273 273 273 273 273 272 271 269 269 269 269 269 270 271 271 273 274 277 280 282 284 287 289 291 292 293 292 292 292 293 293 294 294 293 294 294 295 297 299 299 299 300 300 301 303 304 305 306 307 307 306 306 306 306 306 307 308 308 307 306 306 306 305 306 307 307 307
272 272 272 272 272 272 272 271 272 272 272 272 272 272 273 274 275 276 275 274 273 273 273 274 273 271 269 269 269 269 269 270 270 272 274 277 280 283 285 288 291 293 293 293 292 292 293 293 294 294 294 294 295 296 296 298 299 299 299 299 300 301 302 304 305 305 306 306 305 305 305 306 306 307 307 307 306 305 304 304 304 305 306 306 306
271 271 271 271 271 271 271 271 271 271 272 272 272 272 272 272 273 274 276 276 276 275 274 274 274 273 271 271 270 270 269 269 270 272 274 276 280 283 284 287 290 293 293 293 292 292 293 294 295 295 295 295 296 297 297 298 299 299 299 300 300 301 302 303 304 304 305 305 304 304 305 306 307 306 306 306 306 305 305 304 304 305 305 306 306
271 271 271 271 271 271 271 271 271 271 271 271 271 271 271 271 271 272 273 274 275 276 275 274 274 273 272 271 271 272 271 270 271 272 273 275 278 280 283 286 289 291 292 291 291 291 293 293 294 295 295 295 296 297 298 299 299 299 299 300 301 301 301 302 303 303 303 303 304 304 305 306 306 306 305 305 305 305 306 306 306 305 306 307 306
270 270 270 270 270 270 270 270 270 271 271 271 271 271 271 271 271 271 271 271 272 273 273 274 274 273 272 271 272 272 272 271 271 271 272 274 276 280 283 284 284 286 287 288 288 288 290 292 293 294 295 295 295 296 298 299 299 299 299 300 300 300 301 302 302 303 303 303 303 303 304 305 305 306 305 305 305 305 306 307 307 307 307 306 305
270 270 270 270 270 270 269 270 270 270 270 270 270 270 270 271 271 271 270 270 270 270 271 272 273 273 273 272 272 273 273 272 270 270 271 273 276 278 279 278 276 277 280 282 283 285 286 289 291 293 294 295 296 296 297 298 299 299 300 300 300 300 301 301 302 302 302 303 303 303 303 304 304 305 305 305 306 306 307 307 306 306 305 305 304
270 270 270 270 270 269 269 269 269 269 270 270 270 270 270 270 270 270 270 270 270 270 270 271 272 273 274 273 272 273 273 273 272 273 274 275 276 276 274 273 272 273 275 277 279 281 283 285 288 290 293 295 296 297 297 298 299 299 300 300 300 301 301 301 302 302 302 302 302 302 302 303 303 304 304 305 305 305 306 306 305 305 304 304 305
270 269 269 269 269 269 269 269 269 269 269 269 270 270 270 270 270 270 270 270 269 270 270 269 270 271 271 271 270 272 274 275 275 276 275 275 275 274 273 272 272 272 272 274 276 278 280 282 284 287 290 293 295 297 297 298 299 299 300 300 301 301 301 301 301 302 302 302 302 302 302 303 303 303 304 304 304 304 305 305 305 304 303 303 304
269 269 269 269 269 269 269 269 269 269 269 269 269 269 269 269 270 270 270 269 269 269 269 269 269 269 269 268 268 271 273 273 273 273 273 273 273 272 272 272 272 271 272 273 274 275 276 278 281 284 288 291 293 295 297 298 298 299 300 300 301 301 301 301 301 301 301 302 302 302 302 302 303 303 304 304 304 304 304 304 304 304 303 304 304
269 269 269 269 269 269 269 269 269 269 269 269 269 269 269 269 269 269 269 269 269 269 269 268 268 269 268 267 267 269 271 271 270 271 271 271 272 272 272 271 271 270 270 271 272 272 273 275 278 281 284 287 291 293 295 297 298 298 299 299 300 300 300 301 301 301 301 302 302 302 302 302 302 302 303 304 304 303 304 304 304 304 304 305 305
269 268 268 268 268 268 268 269 269 269 269 268 268 268 268 268 268 268 269 269 269 269 269 268 268 268 269 268 268 269 270 270 270 270 270 270 271 272 272 271 270 269 269 270 270 271 271 273 275 278 281 284 287 290 292 294 296 297 298 298 299 299 300 300 301 301 301 301 301 301 302 302 302 302 303 303 303 303 303 303 303 303 303 304 304
268 268 268 268 268 268 268 268 268 268 268 268 268 268 268 268 268 268 268 268 268 268 269 269 268 268 269 269 269 269 270 270 270 270 270 271 271 272 272 271 271 270 269 269 270 270 270 272 274 276 279 281 284 286 289 291 293 294 296 297 297 298 298 299 299 300 300 301 301 301 301 302 302 302 302 302 302 301 301 301 302 302 302 302 302
268 268 268 268 268 268 268 268 268 268 268 268 268 268 268 268 268 268 268 268 268 268 268 268 268 269 269 269 269 270 270 270 270 270 270 270 271 272 272 273 272 271 270 270 270 270 271 272 273 275 276 278 281 283 285 287 289 291 293 294 296 297 297 297 298 298 299 299 300 300 301 301 301 301 301 301 301 300 300 300 300 300 301 301 301
268 267 268 268 268 268 268 268 268 268 268 267 267 267 267 267 268 268 268 268 268 267 268 268 268 268 269 269 269 269 270 270 269 269 269 270 270 271 272 273 274 273 272 271 270 270 271 272 274 275 276 277 279 281 283 284 286 288 290 291 293 295 296 296 297 297 297 298 299 299 299 300 300 300 300 300 300 300 300 300 299 299 299 299 300
267 267 267 267 268 268 268 268 267 267 267 267 267 267 267 267 267 267 267 267 267 267 267 267 268 268 268 268 268 269 269 269 269 269 269 269 269 270 271 272 274 274 274 272 272 271 272 273 274 275 276 277 279 280 281 283 284 286 287 289 291 292 294 295 295 296 297 297 298 298 298 299 299 299 299 299 298 299 299 299 299 299 298 298 298
267 267 267 267 267 267 267 267 267 267 267 267 267 267 267 267 267 267 267 267 267 267 267 267 267 267 268 268 268 268 268 268 269 269 268 268 269 270 270 272 273 273 274 273 272 272 272 273 273 274 275 277 278 279 280 282 283 284 285 287 288 290 292 293 294 295 296 296 297 297 298 298 298 298 298 298 298 298 298 298 298 298 298 298 298
267 267 267 267 267 267 267 267 267 267 267 267 267 267 267 267 267 267 267 267 267 267 267 267 267 267 267 267 268 268 268 268 268 268 268 268 268 269 270 271 272 273 273 273 273 273 273 273 273 274 275 276 277 278 279 280 281 283 284 285 286 288 290 292 293 294 295 296 296 297 297 297 297 297 297 297 297 297 297 297 297 298 298 298 298
267 267 267 267 267 267 267 267 267 267 267 267 267 267 267 267 267 267 267 267 267 267 267 267 267 267 267 267 267 267 268 268 268 268 268 268 268 268 269 270 270 272 273 273 272 272 272 272 273 274 274 275 276 277 277 278 280 281 282 283 284 285 287 290 292 293 294 295 295 296 296 296 297 297 297 297 297 297 297 297 297 297 297 297 297
267 267 267 267 267 267 267 267 267 267 266 266 266 266 266 267 267 267 266 266 266 266 266 266 266 267 267 267 267 267 267 268 268 268 268 268 268 268 268 268 269 270 272 272 272 272 272 272 272 273 273 274 275 275 276 277 278 279 280 281 282 284 286 288 290 291 292 293 294 294 295 295 296 296 296 296 297 297 297 297 297 297 296 296 296
266 267 267 267 267 267 267 267 267 266 266 266 266 266 266 266 267 267 266 266 266 266 266 266 266 266 266 266 267 267 267 267 267 267 267 268 268 268 268 268 268 269 270 271 271 271 271 271 271 271 272 273 274 275 275 275 276 277 278 279 281 283 284 286 287 288 290 291 292 293 293 294 294 295 295 295 295 295 295 296 296 296 296 296 296
266 266 267 267 267 267 267 266 266 266 266 266 266 266 266 266 266 266 266 266 266 266 266 266 266 266 266 266 266 266 267 267 267 267 267 267 267 267 267 267 268 268 269 270 270 270 270 270 270 270 270 271 272 273 274 274 275 276 277 278 279 281 282 283 285 286 287 289 290 291 292 292 292 293 293 293 294 294 294 294 295 295 295 295 295
Wind_Speed
33 34 35 36 37 38 39 41 42 44 45 45 46 46 47 48 49 50 50 50 48 47 48 49 50 50 50 48 47 43 39 36 33 33 35 36 37 37 37 37 36 34 32 31 31 30 31 32 31 31 32 32 34 33 32 34 38 43 45 45 46 44 50 56 50 50 51 54 60 60 60 60 58 56 55 56 54 53 50 47 47 49 50 48 47
33 34 35 36 37 39 40 42 43 45 46 46 47 47 48 49 50 50 51 50 47 46 48 49 49 50 48 45 45 42 37 35 30 29 34 35 36 37 37 37 35 33 30 28 29 30 31 31 30 30 31 32 34 32 30 33 36 40 44 43 43 42 50 54 48 48 47 50 60 64 63 63 60 55 52 53 55 56 54 53 53 52 51 52 52
33 34 35 36 38 39 41 43 45 46 47 47 48 47 48 50 50 50 50 50 48 46 48 49 47 49 47 42 41 39 36 34 30 28 30 31 32 35 36 36 35 33 30 27 27 27 29 30 28 29 31 32 34 32 28 30 36 40 42 39 39 40 48 53 54 55 50 49 57 64 66 64 63 61 56 53 55 56 57 59 60 56 53 54 55
33 34 36 37 38 40 41 43 45 46 47 48 48 48 49 50 51 50 50 50 49 47 47 48 45 45 44 39 37 37 35 34 31 28 28 27 27 30 32 35 36 34 31 28 25 25 29 31 28 29 30 31 33 32 27 27 33 40 40 35 38 39 45 48 56 62 58 53 54 61 67 65 65 66 63 61 62 61 61 63 63 59 56 54 55
33 35 36 38 39 40 42 44 45 47 47 48 48 49 50 51 51 50 49 49 50 48 47 47 45 42 41 38 36 36 36 35 34 32 31 31 31 32 34 37 37 35 33 30 25 23 27 31 29 29 30 30 32 31 28 27 29 37 40 34 36 39 45 44 52 62 61 59 55 57 63 64 64 67 68 69 68 65 62 61 61 59 57 55 53
33 35 37 38 40 41 42 44 45 47 47 48 48 48 50 50 50 49 49 48 48 48 47 46 45 42 39 38 37 37 36 36 35 35 32 32 35 38 39 40 39 36 35 32 28 24 25 28 29 30 29 30 31 29 28 28 29 35 39 33 34 40 47 43 47 56 60 62 60 57 58 61 62 64 68 73 71 67 64 60 60 60 59 56 54
34 36 37 38 39 41 42 44 45 47 47 48 48 48 49 50 50 50 49 49 48 49 47 45 44 43 40 39 38 37 36 35 35 35 33 31 32 36 39 40 40 38 37 35 31 28 27 28 29 31 30 30 30 29 28 28 29 35 38 32 32 41 51 47 45 51 56 60 60 58 58 60 64 66 69 73 70 68 68 65 62 62 60 58 56
34 36 37 38 39 41 43 44 46 47 47 47 47 48 49 50 50 50 49 48 47 47 47 45 44 42 39 38 37 36 36 36 35 34 32 30 29 30 32 36 38 39 38 37 35 32 29 31 32 32 31 31 30 29 29 27 27 33 37 32 31 40 56 54 50 50 53 57 57 58 59 57 61 66 69 68 65 65 69 69 67 66 63 58 56
35 36 37 38 40 41 43 45 46 47 47 47 47 47 50 51 51 51 49 48 47 45 44 44 44 41 38 36 36 34 34 35 36 34 31 27 26 26 27 29 32 36 39 39 37 34 30 31 33 33 33 32 29 28 30 29 27 32 36 31 31 39 56 59 58 54 52 55 55 56 58 56 58 64 66 66 66 66 69 68 66 66 64 60 57
35 36 37 39 40 42 43 45 47 48 47 47 47 48 50 51 51 51 50 49 47 45 42 40 41 40 37 36 34 34 34 34 35 33 29 27 27 28 28 28 28 32 36 38 39 37 32 32 35 34 33 32 29 29 31 30 29 33 37 30 29 38 54 58 60 58 54 55 55 55 57 55 59 67 69 70 70 69 68 66 64 64 63 61 59
35 36 37 39 40 42 44 45 46 47 47 47 47 48 49 51 52 52 51 49 46 44 41 38 37 37 35 35 34 33 33 33 34 32 28 26 28 30 30 29 28 30 33 37 39 39 37 37 37 35 33 32 30 29 31 31 29 33 39 33 29 36 53 59 60 60 57 56 56 58 60 59 63 70 72 70 68 68 69 68 65 66 66 63 62
35 36 37 38 40 41 43 45 46 47 47 47 47 48 50 51 53 52 52 50 46 43 41 38 37 36 34 34 34 33 33 33 33 32 29 26 27 29 31 30 30 31 33 35 38 39 40 40 39 36 34 32 30 28 30 31 30 32 39 37 31 35 53 61 60 61 60 59 58 60 63 65 67 70 70 69 69 70 71 68 67 69 69 68 66
34 35 36 38 40 41 43 44 46 46 47 47 47 48 50 52 53 53 52 51 47 43 40 38 37 35 34 34 34 33 33 32 31 30 28 25 24 27 30 30 30 30 32 34 37 39 40 41 41 39 37 34 30 28 29 30 29 31 37 36 32 35 52 62 60 61 62 64 64 64 66 68 70 72 72 72 72 72 71 69 69 70 71 70 68
34 35 36 37 39 41 43 44 45 46 47 47 47 48 50 52 53 53 53 52 49 46 42 40 39 36 35 35 34 33 32 31 29 29 27 24 22 24 28 29 29 30 32 34 36 38 40 41 41 40 39 37 32 28 28 28 28 30 34 33 30 35 51 60 60 61 63 64 65 65 67 69 70 74 75 73 74 75 74 72 71 71 71 69 66
34 35 36 37 39 41 42 43 44 45 46 47 47 48 50 53 53 52 52 51 49 45 42 39 38 36 34 34 34 33 31 29 29 29 27 24 23 25 27 29 29 30 31 32 33 34 36 39 41 41 41 39 35 30 27 27 26 28 31 29 27 36 53 61 61 62 63 63 64 64 65 66 69 72 74 74 75 77 76 74 70 69 69 65 62
33 34 35 37 38 40 42 43 44 45 46 47 47 48 51 53 53 52 51 50 47 44 40 37 36 35 33 33 34 33 29 27 28 29 27 23 22 25 28 29 30 30 31 33 33 32 33 35 38 41 42 40 37 32 27 27 26 26 29 26 24 35 55 62 62 64 64 64 65 64 63 63 64 67 72 74 74 73 72 70 67 67 67 63 58
33 34 35 36 38 39 40 41 43 44 45 47 47 49 51 52 52 51 50 49 47 43 40 37 36 35 33 32 33 33 29 25 25 27 27 24 21 23 26 29 30 30 30 31 32 33 34 35 36 39 42 41 38 34 29 28 26 26 27 24 24 37 55 62 62 64 64 64 64 62 61 62 61 63 68 73 74 73 70 67 66 68 66 61 57
33 34 35 35 37 38 39 40 41 42 44 46 47 48 50 51 51 49 47 46 45 42 40 39 38 37 34 32 32 34 32 28 25 25 24 23 22 22 24 28 31 32 31 31 31 33 35 35 36 38 40 41 39 36 31 29 28 27 26 22 24 38 54 60 61 62 62 61 62 61 60 60 60 62 67 72 75 75 71 68 69 70 67 64 63
33 34 34 35 35 36 37 38 39 40 43 44 45 46 48 50 49 47 44 43 43 41 40 41 41 40 36 34 33 33 33 31 29 26 22 19 20 22 23 26 29 31 31 31 32 33 35 35 34 36 39 40 40 38 33 30 29 28 25 22 25 38 53 60 61 62 60 59 60 60 60 61 61 63 67 70 73 74 73 70 71 72 71 69 67
32 32 33 34 34 35 36 37 37 39 41 43 44 45 47 49 49 46 43 42 41 41 41 42 43 40 37 36 35 31 32 33 31 28 24 19 17 20 23 26 28 27 28 29 31 32 33 33 32 32 35 37 39 39 34 30 30 28 25 24 28 38 51 59 60 60 60 59 59 59 60 61 62 64 67 70 72 74 74 73 73 75 75 71 69
31 31 32 32 33 33 34 35 36 37 39 41 43 43 45 48 48 46 44 42 41 42 43 44 44 41 40 41 39 34 32 34 32 26 24 24 19 17 22 26 28 28 28 29 31 32 31 31 30 30 31 32 37 38 33 28 30 30 28 30 31 37 49 57 57 57 59 58 58 57 56 58 60 62 66 69 71 72 73 72 74 77 77 74 73
30 30 31 31 31 32 33 34 35 37 38 39 41 42 45 46 46 45 43 41 42 43 45 46 44 42 43 44 42 39 37 35 31 23 20 23 26 22 22 24 23 25 28 30 31 32 32 31 29 29 31 32 35 37 31 27 30 31 31 31 28 32 46 56 56 56 58 58 57 56 55 56 59 61 64 69 71 71 72 72 73 77 78 76 77
29 29 29 30 31 31 32 33 35 36 37 38 40 41 44 46 46 45 42 41 42 45 47 47 44 43 46 45 41 41 42 37 30 24 18 17 21 23 24 25 23 24 29 32 31 30 30 30 29 28 31 34 36 35 30 28 31 32 31 28 26 30 43 54 57 57 57 57 57 57 56 58 60 62 64 68 70 72 73 72 72 74 75 75 77
28 28 28 29 30 30 31 32 34 35 37 38 39 40 43 46 46 45 43 41 42 46 49 47 42 44 49 46 41 44 47 41 33 28 23 18 16 15 19 24 27 28 31 33 32 29 27 27 27 26 28 32 34 33 31 30 31 32 29 26 27 32 41 52 59 58 57 56 56 57 58 59 62 64 66 67 68 70 72 71 70 71 71 71 73
26 26 27 28 29 30 31 32 33 34 36 37 38 39 42 46 46 44 43 42 42 47 50 45 40 43 47 44 42 47 49 44 38 33 29 25 19 14 14 18 23 28 32 34 34 30 26 24 24 24 25 28 30 31 31 31 31 30 27 26 27 33 42 53 59 59 57 57 57 58 60 62 63 64 65 65 66 68 69 67 66 65 64 65 68
25 25 26 27 28 30 32 32 33 33 34 36 37 37 38 43 45 44 41 41 43 47 47 43 40 44 45 40 41 47 47 43 41 38 35 32 26 19 15 15 17 22 27 32 33 30 25 22 23 23 24 26 28 29 29 29 28 28 26 24 27 35 45 53 58 60 59 59 59 60 61 62 62 62 63 64 65 67 68 67 65 64 62 62 65
24 24 25 27 28 30 31 33 34 34 34 35 37 37 37 39 43 43 41 42 44 46 45 42 41 44 44 41 42 45 44 42 43 43 43 41 36 29 23 18 16 17 19 24 28 28 25 23 23 24 24 25 26 27 27 26 26 27 25 23 28 39 48 54 59 63 63 62 61 60 59 59 59 60 61 63 64 65 67 67 65 64 63 62 62
22 23 24 26 28 29 31 32 34 34 34 34 35 38 39 38 40 41 40 40 41 43 43 41 40 41 42 43 43 43 42 41 43 44 43 42 40 37 32 25 20 18 16 18 21 25 27 26 26 25 25 26 26 26 26 26 26 26 25 24 31 42 49 54 59 62 62 61 59 57 55 57 59 60 61 61 60 60 62 65 65 65 65 62 60
20 22 23 25 27 28 29 31 32 34 34 33 33 34 36 37 38 40 38 36 35 35 36 37 37 38 40 42 42 41 41 42 42 41 39 36 34 35 35 31 26 21 17 14 17 20 24 27 30 29 28 28 27 26 27 26 26 26 25 26 34 44 49 53 56 58 58 57 56 55 57 59 60 61 61 61 60 59 60 64 65 65 65 63 60
19 20 22 24 26 28 29 30 31 32 34 35 35 33 32 32 34 37 37 36 34 32 31 31 32 34 37 40 39 35 36 39 40 38 35 32 29 28 31 31 29 23 17 14 16 20 21 23 27 29 28 29 28 27 27 26 26 27 26 28 38 47 51 54 56 56 56 57 56 58 60 61 61 61 61 62 62 62 62 64 64 64 65 64 62
18 19 22 24 25 27 29 30 31 32 32 34 37 37 35 33 31 32 34 35 35 35 34 34 34 35 37 40 38 33 31 35 37 35 32 30 26 22 22 24 23 18 15 16 19 22 22 22 24 26 27 29 28 27 27 27 28 29 28 32 42 49 52 55 56 56 56 56 56 58 60 60 61 62 63 63 63 62 62 62 62 62 64 65 64
17 19 21 22 24 26 27 28 30 31 32 33 35 37 39 39 36 34 34 34 35 36 37 38 40 42 42 41 38 34 33 36 35 32 30 28 22 16 12 14 15 13 14 16 20 24 24 24 24 25 26 28 28 28 27 28 30 31 31 36 45 50 53 56 56 56 56 55 56 57 59 60 60 61 62 63 62 61 60 60 61 62 63 63 62
16 17 19 21 22 24 26 27 29 30 32 33 34 35 38 41 42 41 39 37 35 35 37 40 42 46 48 46 40 34 33 35 34 32 30 26 20 13 9 7 6 8 12 15 19 23 24 24 25 26 26 27 28 28 28 30 32 33 34 39 46 51 54 55 55 54 55 55 56 57 58 59 60 60 60 61 61 61 62 62 62 62 61 61 60
15 16 18 19 21 23 24 26 27 29 30 31 32 34 35 37 40 42 44 44 43 41 41 42 44 46 50 51 46 40 37 35 34 32 30 27 21 14 7 3 0 5 10 12 13 16 18 20 23 25 27 28 28 28 29 31 33 34 36 40 46 49 51 52 52 52 52 53 54 56 58 59 59 59 59 60 61 62 63 64 63 62 62 61 60
13 14 16 17 19 21 23 24 25 27 28 29 30 32 33 34 36 38 41 44 46 47 46 46 46 47 50 52 51 48 44 40 38 35 32 29 23 14 7 4 9 10 8 9 7 5 8 13 18 21 24 27 28 29 29 31 34 36 37 40 44 47 48 51 52 52 51 52 53 55 57 59 60 61 61 62 61 62 63 64 64 64 63 61 59
11 12 13 15 17 19 21 22 23 25 26 27 28 29 31 32 34 36 38 40 42 44 47 47 46 45 47 50 51 50 49 48 45 41 36 32 28 22 19 24 28 26 21 17 14 11 6 5 11 16 21 24 26 28 29 31 35 37 38 40 43 46 48 52 53 53 52 52 53 55 56 58 60 61 62 63 63 64 64 64 64 63 62 60 58
9 11 12 14 16 17 18 20 22 23 24 25 26 27 29 31 32 34 36 39 40 42 44 47 47 47 49 51 52 50 50 50 49 45 40 36 33 33 35 37 37 35 31 27 23 19 15 9 4 7 14 20 24 26 28 31 33 35 37 39 43 46 49 52 53 54 54 52 52 53 55 57 59 60 61 61 62 62 62 63 62 61 61 60 59
8 10 12 13 15 16 17 18 20 21 22 23 25 26 28 30 31 33 35 37 39 40 42 45 47 49 51 53 52 50 49 50 51 51 49 44 41 41 41 41 40 40 38 34 30 27 23 18 13 7 7 12 18 23 26 28 30 33 35 38 42 46 49 51 52 53 53 52 52 53 55 56 57 59 60 61 60 60 60 61 61 60 59 59 60
8 10 11 13 14 15 17 18 19 20 21 22 24 26 27 29 30 32 34 35 37 39 40 42 44 46 48 50 50 49 50 53 55 56 56 53 49 47 45 44 43 43 41 38 36 34 31 26 21 15 10 9 12 18 23 25 28 30 34 38 42 45 47 49 50 51 53 53 53 54 55 56 57 58 59 60 60 59 59 60 60 61 61 61 62
7 9 10 11 13 14 16 17 18 20 21 22 23 25 26 28 29 31 32 34 35 37 38 40 41 42 44 46 46 48 50 52 53 54 54 54 52 50 49 48 48 47 45 43 42 40 37 33 29 24 18 13 11 13 16 21 25 28 31 35 40 43 46 48 50 52 53 54 54 54 55 56 57 57 58 59 59 59 59 60 61 62 63 63 63
6 7 9 10 12 13 15 16 17 19 20 21 23 23 25 26 28 29 30 32 34 35 36 37 38 39 40 41 42 43 45 47 49 51 51 52 51 51 50 50 50 49 48 47 45 43 41 38 35 31 26 20 16 13 13 16 20 24 28 31 35 38 43 47 50 52 53 53 53 53 55 56 56 56 58 58 58 58 58 59 60 61 61 61 62
5 6 8 9 11 12 13 15 16 18 19 20 21 22 23 24 26 27 28 30 32 33 34 35 36 36 37 38 39 40 42 44 46 48 49 49 49 49 49 49 50 50 50 49 47 46 44 42 40 37 33 28 22 17 14 13 15 18 22 27 29 31 34 39 43 47 50 51 51 52 53 54 55 56 57 58 57 55 55 56 57 58 59 59 59
4 6 7 9 10 11 13 14 15 16 17 18 20 21 22 23 24 25 27 28 30 31 32 34 35 35 36 37 37 38 40 43 45 46 47 48 47 47 46 47 49 50 50 50 49 48 47 46 45 43 39 35 30 24 20 15 12 12 15 19 23 26 29 32 36 39 43 46 49 50 51 53 54 55 55 55 55 54 53 54 54 55 57 57 57
4 5 7 8 9 11 12 13 14 15 16 18 19 19 20 22 23 24 25 26 28 29 30 32 33 34 35 36 37 39 41 42 43 44 45 46 46 46 45 45 46 47 49 51 51 51 50 50 49 47 44 41 36 31 27 21 15 11 10 11 16 20 24 28 31 34 37 41 45 47 48 49 51 52 52 52 52 53 53 53 53 53 54 55 55
3 4 6 7 8 9 10 11 12 13 14 15 17 18 19 21 22 23 24 25 26 27 28 29 31 33 34 35 37 38 39 40 41 42 44 45 45 45 45 44 44 46 48 50 51 52 52 52 51 50 48 46 42 38 34 29 23 17 12 7 8 12 17 21 25 29 32 36 39 42 44 45 46 48 48 49 49 51 52 53 54 54 53 53 54
2 3 5 6 7 8 9 10 11 12 13 14 15 17 18 20 21 22 23 24 25 26 27 28 29 31 32 33 35 36 36 37 38 40 41 43 43 44 44 43 43 44 46 48 49 50 51 52 52 52 51 49 47 44 41 37 32 27 21 14 8 5 8 13 19 23 27 30 33 36 38 40 42 43 45 46 47 48 49 50 51 52 52 53 53
2 3 4 5 6 7 8 9 10 11 12 13 15 16 17 19 20 20 21 22 23 24 25 26 27 28 30 31 32 33 34 35 36 38 39 40 42 42 43 42 42 42 43 46 47 48 50 51 51 51 51 51 50 48 45 42 38 35 30 25 19 11 3 6 12 17 21 25 27 30 32 34 37 39 41 42 44 45 46 47 48 49 50 51 51
2 3 4 4 5 6 7 8 9 10 12 13 14 15 16 17 18 19 20 21 22 23 24 25 25 26 28 29 30 31 31 32 34 35 36 38 39 40 41 42 41 41 41 44 46 47 49 50 50 50 50 50 51 50 49 46 43 39 36 32 27 20 12 4 5 11 16 20 23 25 27 29 31 34 36 39 41 43 44 45 45 46 46 47 48
2 3 3 4 4 5 6 7 8 9 11 12 13 14 15 16 17 18 19 20 21 22 23 24 24 25 26 27 28 29 30 31 32 33 34 35 37 38 39 40 41 41 41 43 45 46 47 49 50 50 49 49 49 50 50 49 46 43 40 36 31 26 20 14 8 5 9 14 18 21 23 25 27 30 32 34 37 39 41 42 43 43 43 44 44
3 2 3 4 4 5 6 7 8 9 10 11 12 13 14 15 16 17 18 19 19 20 21 22 23 24 25 26 27 28 29 29 30 31 32 33 35 36 37 39 39 40 41 42 43 45 46 48 49 50 50 49 48 48 48 48 47 45 42 38 34 30 27 23 18 12 7 9 13 16 19 22 24 27 29 31 33 34 36 37 39 40 40 41 42
3 3 3 3 3 4 5 6 7 8 9 10 11 11 13 14 15 16 17 18 19 20 21 21 22 23 23 24 25 26 27 28 28 29 30 31 33 34 36 37 38 39 39 40 41 43 44 46 49 50 50 49 48 47 46 45 45 43 42 40 38 35 32 29 25 20 14 10 9 11 14 17 19 22 24 27 29 31 32 33 34 35 36 37 38
Wind_Direction
328 329 329 329 329 329 329 328 327 327 327 327 326 326 325 325 325 324 323 322 321 317 314 312 307 305 306 303 302 303 299 296 291 283 276 268 263 259 254 253 252 254 256 254 253 251 251 253 255 264 270 273 272 262 258 263 256 251 249 251 264 252 210 194 186 177 179 183 180 176 175 172 168 168 169 169 174 178 179 180 180 180 179 178 182
330 330 330 330 330 330 329 329 328 328 327 327 327 327 327 328 327 326 324 323 321 316 314 314 307 304 307 304 303 304 301 299 295 286 279 271 264 258 253 253 253 252 254 255 254 251 250 252 255 262 267 271 271 262 258 261 254 251 249 249 262 247 206 191 186 175 173 180 178 175 174 174 175 179 179 176 177 180 181 184 184 182 183 182 182
331 331 331 330 331 331 330 330 329 328 327 327 327 328 329 330 329 327 325 324 323 316 313 314 309 305 308 308 305 305 301 297 296 290 285 278 267 261 256 254 253 249 248 251 252 254 254 252 255 262 264 269 270 260 257 259 253 251 248 248 258 239 202 189 185 176 174 177 177 175 176 178 181 184 186 184 183 182 181 184 185 183 184 185 184
332 332 332 332 332 332 331 330 328 327 327 328 328 329 332 331 329 328 326 323 323 319 314 315 312 307 309 308 303 301 296 292 291 285 279 276 269 263 259 256 252 246 244 246 248 256 260 254 253 259 261 267 268 259 254 253 253 252 245 248 258 232 198 189 187 179 175 176 176 176 176 178 182 184 185 183 182 183 184 184 184 183 185 186 187
333 333 333 333 334 333 331 329 328 328 328 329 330 333 333 332 330 329 328 324 322 322 318 317 315 312 311 308 302 299 297 294 292 284 271 263 259 256 253 252 250 243 240 242 243 250 259 256 253 256 259 264 266 260 253 246 249 253 244 249 259 227 195 189 188 181 178 176 175 176 175 176 178 180 183 179 175 179 183 184 184 184 185 187 188
334 334 335 334 334 332 330 329 328 328 328 330 333 335 333 331 330 329 328 326 324 323 321 318 316 314 311 308 304 300 298 294 292 290 282 269 259 255 252 252 250 243 238 241 240 241 250 251 250 252 255 262 265 261 256 246 246 251 244 250 258 224 195 188 186 182 180 178 177 176 173 174 175 175 180 178 173 175 180 182 185 186 186 186 186
335 335 335 334 333 331 330 329 328 328 330 333 336 335 332 330 331 331 330 329 327 325 324 320 317 314 310 307 305 301 298 295 292 292 290 282 269 260 256 254 252 246 239 240 241 241 244 244 246 249 252 260 264 262 260 250 247 249 242 249 257 222 197 191 187 182 180 178 177 176 173 174 174 173 176 177 176 177 179 179 181 184 186 187 185
336 336 335 334 332 331 330 329 329 330 333 336 336 334 332 331 332 333 332 330 328 326 324 321 318 315 312 309 307 304 301 298 296 295 293 288 279 269 262 258 254 248 242 240 241 243 245 243 244 247 250 257 261 261 261 254 250 248 240 249 257 220 196 192 191 186 182 179 177 177 175 173 172 172 174 175 174 175 180 181 180 181 185 187 186
336 336 335 334 333 331 330 329 330 332 335 337 336 335 334 333 334 335 334 332 330 328 325 321 319 318 316 314 311 308 303 299 298 299 297 289 280 276 273 267 260 251 244 242 242 245 247 246 247 248 250 256 259 259 261 255 251 247 237 247 257 218 193 190 192 189 185 183 179 177 175 173 171 171 173 176 177 177 181 183 181 181 184 186 188
336 336 335 334 332 330 330 330 332 334 336 336 336 336 335 334 335 336 335 334 332 329 325 320 319 321 320 317 314 310 305 301 300 301 297 285 273 270 271 271 268 259 250 245 243 243 244 244 246 248 249 255 257 257 260 256 251 245 236 244 255 218 191 184 189 190 186 183 180 177 175 173 173 174 177 181 182 180 180 182 180 180 183 184 187
336 336 335 333 331 331 332 332 333 335 336 337 337 337 336 335 337 337 337 336 333 330 327 324 324 325 323 320 317 313 308 304 303 303 297 283 271 266 265 263 263 261 255 249 244 242 243 244 246 248 249 254 257 257 259 256 251 245 235 240 254 224 195 184 185 189 188 183 180 179 178 176 176 179 180 180 181 180 181 182 182 180 182 184 185
335 335 334 333 332 332 333 332 333 334 336 337 338 339 338 337 338 339 337 337 335 331 329 329 330 330 327 323 321 317 310 306 305 304 298 285 271 266 265 262 259 258 256 252 246 242 243 245 248 250 250 253 256 256 259 257 253 246 235 236 252 232 204 193 190 191 191 187 183 182 183 181 179 180 181 180 180 181 182 183 185 185 185 186 186
335 334 334 333 333 333 333 333 334 335 336 338 339 340 340 339 340 340 338 337 337 335 333 333 333 333 330 327 324 319 313 310 310 308 302 291 274 264 263 262 261 260 257 255 249 244 243 246 248 251 250 251 254 256 260 260 255 246 234 235 251 236 209 201 202 201 197 193 189 187 187 186 182 182 184 184 182 181 182 184 188 189 188 187 188
334 334 334 334 333 333 333 333 335 335 337 339 341 342 341 340 341 341 339 340 340 337 336 335 333 332 330 328 325 319 313 312 313 311 304 295 281 267 261 260 260 260 258 257 253 246 243 244 247 250 250 250 253 255 259 262 257 246 235 236 250 236 210 201 205 207 203 200 197 194 192 191 190 188 187 187 185 184 185 187 189 189 189 188 188
334 334 335 335 335 334 334 334 335 336 338 340 343 345 343 341 342 343 341 340 339 337 335 333 331 329 327 327 324 317 311 311 313 312 305 294 281 269 264 260 259 259 256 255 255 252 248 246 246 249 249 249 251 253 258 262 258 246 236 238 247 231 210 202 204 206 205 206 206 203 198 198 197 194 190 189 190 189 189 190 189 188 188 187 188
334 335 336 336 336 335 335 335 337 338 339 342 346 347 345 342 344 344 341 339 338 336 334 333 333 330 327 328 327 319 312 311 312 309 304 295 279 268 264 260 259 259 256 251 250 249 248 248 248 248 248 249 250 251 256 261 257 244 236 238 243 225 208 204 206 207 207 208 209 208 206 204 202 199 197 195 192 190 189 188 187 187 186 185 187
334 336 338 337 337 336 336 337 338 340 341 345 348 348 346 344 344 344 342 338 338 337 335 335 336 334 330 330 331 326 322 321 319 310 302 295 282 269 263 260 258 258 257 256 255 252 249 248 248 248 248 248 249 250 254 257 253 242 234 236 236 220 206 201 204 207 209 210 210 211 211 208 204 204 203 199 195 192 188 184 184 186 186 183 185
336 337 338 338 338 338 338 339 341 342 344 347 350 349 346 345 345 344 342 339 337 337 337 337 337 338 335 334 335 332 329 331 333 321 305 294 284 273 265 262 260 258 253 252 254 255 255 252 249 248 247 246 247 249 251 253 249 240 234 232 229 217 204 197 198 202 205 207 209 211 211 209 206 204 201 199 198 195 191 188 186 186 186 185 187
337 338 338 339 340 340 340 340 343 345 346 349 352 351 347 345 345 345 343 341 339 339 339 339 338 338 340 339 339 336 331 334 338 334 322 302 283 275 270 264 262 262 259 255 255 258 260 257 252 248 245 244 245 246 247 249 247 239 233 230 228 218 204 197 197 199 199 199 201 203 205 205 204 202 200 200 200 198 198 197 192 188 188 189 189
338 338 339 341 341 341 341 342 345 349 349 350 353 351 348 347 347 346 345 344 342 341 342 341 337 338 344 345 342 340 336 335 336 335 333 321 291 273 269 264 260 260 262 264 265 265 264 261 254 247 243 242 244 244 245 247 245 240 232 225 225 219 206 199 200 202 199 197 197 198 199 199 199 198 197 198 199 200 200 200 197 193 192 191 190
338 339 341 342 342 342 343 345 348 352 352 352 353 352 350 350 349 349 348 347 345 345 345 343 339 342 349 348 345 344 341 335 332 332 333 330 314 281 264 260 258 256 257 259 261 262 263 261 254 244 240 240 242 242 244 246 244 239 230 221 221 220 210 202 203 205 202 199 198 198 197 196 196 197 197 197 198 199 197 198 199 198 195 192 192
339 341 342 342 343 344 346 348 351 353 354 354 354 354 352 352 352 351 349 348 348 347 346 344 343 346 348 347 345 344 341 337 336 338 338 333 324 302 273 260 256 252 251 253 255 256 259 260 254 244 237 238 241 241 243 248 245 237 230 225 222 221 214 206 203 204 202 200 199 198 196 195 196 197 198 198 199 200 197 197 199 199 198 198 198
341 343 343 343 345 346 348 352 355 355 355 355 357 357 354 353 355 355 352 351 350 349 347 347 347 346 346 346 344 340 339 339 339 341 344 337 326 310 288 273 262 251 248 251 254 256 258 259 256 247 240 240 242 242 243 250 247 239 235 230 221 218 214 206 202 202 199 197 197 196 195 196 196 197 198 198 199 201 200 199 199 199 200 203 203
342 344 344 344 347 349 352 356 358 356 355 356 359 1 357 355 357 358 355 353 352 351 351 349 347 346 347 346 340 336 338 340 338 337 337 332 325 316 298 285 274 261 252 252 256 259 261 259 256 250 244 243 244 243 246 251 249 243 239 229 215 213 210 202 198 198 195 193 195 195 195 197 199 200 201 201 201 201 201 200 199 198 198 201 202
343 345 345 346 350 352 354 359 1 359 357 358 2 6 1 357 360 1 358 355 354 354 353 348 343 346 349 344 336 336 339 340 338 337 334 328 321 315 304 292 282 271 259 254 256 262 264 262 257 252 247 244 244 245 247 250 249 243 236 224 214 213 209 199 194 193 192 192 194 195 197 200 203 204 203 202 201 200 198 198 198 197 196 197 199
344 346 347 349 352 354 356 360 2 1 0 0 5 10 7 1 2 4 1 357 356 355 352 345 344 349 349 341 336 339 341 342 341 340 337 333 326 316 304 291 284 278 266 257 255 258 263 263 257 251 248 244 243 245 246 247 246 240 230 222 218 215 207 198 193 193 194 195 196 197 199 201 201 200 199 199 199 199 199 199 199 197 196 196 196
344 346 349 352 355 357 359 1 1 1 3 3 4 10 13 9 7 7 6 1 358 354 350 345 346 350 347 341 340 342 343 344 345 343 339 334 327 321 314 301 287 283 276 265 254 248 250 255 253 248 246 243 242 244 244 244 242 234 227 225 221 214 206 200 197 197 200 200 199 199 198 197 196 195 195 196 199 201 202 202 199 196 196 196 196
345 348 351 354 357 359 2 3 1 360 4 7 8 8 12 14 12 11 11 6 357 350 347 347 349 350 347 344 345 344 343 344 345 342 337 331 323 316 313 306 294 284 280 279 265 246 239 243 245 244 243 243 243 243 241 240 237 228 225 227 221 211 206 203 200 199 200 200 197 195 194 193 194 195 195 197 199 202 204 203 200 198 197 196 196
347 350 353 357 359 2 4 5 3 0 1 7 12 13 14 16 15 13 14 13 5 355 351 349 350 351 350 350 349 346 343 343 342 337 332 328 320 311 304 300 295 282 269 272 273 256 240 235 237 240 241 241 241 240 238 238 233 225 224 226 217 208 203 201 198 196 196 195 194 194 194 194 195 195 195 196 199 204 206 204 201 199 199 198 197
350 353 357 359 0 2 5 6 5 3 2 3 7 12 17 22 22 19 17 16 16 14 10 5 1 357 355 354 353 349 345 343 341 338 334 328 319 309 300 295 292 282 261 249 255 256 247 237 234 236 238 238 239 236 234 232 229 224 225 223 212 204 202 201 199 196 196 197 197 197 197 196 195 196 197 197 199 203 206 204 201 199 199 199 198
353 357 1 2 2 3 6 7 5 4 5 5 4 5 9 16 23 26 24 20 18 19 21 23 23 16 6 359 357 356 354 350 347 344 341 334 327 320 307 296 289 276 250 233 235 241 245 243 238 236 237 238 237 234 230 227 225 226 226 218 208 203 201 201 200 198 198 198 198 198 197 196 195 196 198 198 198 199 200 199 199 199 200 199 198
356 0 3 4 4 5 7 7 6 5 5 7 7 6 6 8 11 17 24 26 24 22 21 24 29 29 21 11 5 4 4 1 356 354 351 345 340 338 326 303 285 259 230 221 226 232 238 243 242 239 239 239 237 232 227 224 224 225 222 213 205 203 202 200 199 199 198 197 196 195 196 197 197 197 197 197 196 196 196 195 197 199 200 199 199
357 3 5 4 4 7 8 8 7 6 6 7 8 9 10 10 8 9 12 17 23 26 24 23 27 31 29 22 16 14 12 9 7 6 3 357 350 352 358 344 295 236 211 211 224 233 239 244 246 244 242 241 239 234 228 225 224 224 220 212 206 203 202 201 199 198 197 196 195 195 195 196 197 196 195 195 196 196 195 195 196 197 198 198 198
358 3 6 5 5 8 9 8 7 7 7 8 9 10 12 14 13 11 10 11 13 18 22 23 25 30 31 27 23 23 22 20 18 17 14 11 7 356 336 323 162 175 182 189 207 225 233 238 244 247 247 246 243 238 232 229 226 222 218 213 207 203 201 200 199 197 196 195 194 195 196 196 197 196 194 194 195 195 194 195 195 195 196 197 197
1 5 5 5 7 9 10 9 8 7 7 8 10 11 13 15 16 16 16 15 13 14 16 19 22 27 31 29 26 27 29 29 27 26 24 24 21 4 326 0 56 73 102 122 131 168 209 220 229 237 242 245 245 242 236 230 225 221 216 211 206 202 200 200 199 198 197 195 194 195 195 195 196 196 195 193 192 192 192 194 195 196 197 197 196
2 7 6 6 9 12 10 8 7 7 8 9 10 12 14 15 17 18 19 19 18 16 16 16 17 23 30 30 27 27 31 33 33 33 34 35 36 36 41 46 47 49 56 68 75 78 91 177 213 223 228 232 235 238 237 231 224 220 215 209 204 201 200 200 200 199 198 196 195 195 194 194 194 194 194 194 194 194 196 197 197 198 199 198 197
0 7 8 8 11 13 11 9 8 8 8 8 9 12 14 16 18 19 20 21 20 19 18 17 15 18 26 29 26 25 29 32 35 37 38 41 44 47 49 47 45 44 47 52 58 62 65 74 128 202 215 217 217 221 225 226 223 218 213 209 206 204 203 202 200 199 198 197 197 196 196 195 195 194 194 195 196 197 199 201 200 200 200 200 199
0 5 7 9 11 12 11 9 9 8 7 8 10 13 15 16 18 20 22 22 22 20 20 20 18 19 22 24 22 22 25 30 33 35 36 38 41 44 46 46 46 45 45 47 50 53 55 58 67 95 169 197 203 205 208 213 217 217 214 210 208 207 206 204 201 200 199 198 198 198 198 198 197 197 197 198 199 199 201 202 202 201 200 200 201
2 7 7 7 9 9 9 9 9 7 8 10 12 14 15 16 18 20 22 23 23 22 22 23 22 23 24 23 19 19 25 29 31 32 34 36 38 41 43 44 45 44 43 45 47 48 47 50 56 69 97 141 175 189 194 197 203 209 212 212 210 207 205 203 201 201 200 199 200 201 201 200 200 200 201 202 202 202 202 203 203 203 202 203 204
2 7 7 6 7 8 7 8 8 7 8 11 13 15 16 17 18 21 22 23 24 23 24 24 24 25 27 27 22 20 25 30 31 32 33 35 37 40 41 42 43 42 41 43 44 43 42 45 50 58 71 93 126 157 174 184 190 195 202 207 209 207 205 204 203 203 202 202 202 202 202 203 202 202 203 204 204 204 204 204 204 205 205 206 206
3 6 6 7 9 9 8 7 8 9 10 12 13 16 18 18 19 20 21 23 24 24 24 26 26 25 27 29 27 25 26 30 32 33 34 35 37 40 41 42 43 42 41 41 42 42 41 43 47 53 60 71 88 112 139 164 178 185 191 197 201 204 205 206 205 204 203 202 202 202 203 204 204 204 204 205 205 205 205 205 205 206 206 207 208
1 4 5 6 9 9 8 8 10 12 12 13 15 17 18 19 20 21 21 22 24 24 23 25 26 26 27 28 28 27 28 31 32 34 34 35 37 40 42 43 44 44 42 41 42 41 41 44 47 51 55 61 68 81 102 127 150 169 181 189 194 197 200 202 204 204 204 203 202 203 204 205 205 206 207 206 205 204 205 205 206 206 206 207 208
356 1 3 4 6 8 9 10 12 13 13 14 16 18 19 19 20 21 22 23 23 23 23 24 24 24 26 27 28 28 30 31 32 33 34 35 36 39 41 44 46 46 45 44 43 42 43 46 49 51 53 57 60 65 73 85 107 137 162 178 187 192 194 196 199 201 202 203 203 204 205 206 207 207 207 206 205 205 205 205 206 206 206 207 208
351 358 360 1 4 8 10 11 12 14 16 16 16 17 19 20 20 20 22 23 23 23 24 24 23 23 24 26 27 28 30 31 32 33 34 34 35 37 39 42 46 48 47 46 44 43 44 47 49 51 54 56 59 62 65 69 78 97 126 157 176 186 191 194 196 198 200 203 204 204 205 206 207 207 206 205 205 205 205 206 206 206 206 206 206
343 350 354 358 2 5 7 10 12 14 15 15 14 14 15 18 19 20 21 22 23 24 24 24 24 24 24 25 26 28 30 32 32 33 34 34 34 35 37 39 43 47 48 47 45 45 45 47 49 50 52 54 56 59 61 63 66 71 80 107 156 178 187 192 196 198 201 203 205 205 205 205 206 206 205 205 205 205 206 206 206 206 206 206 206
324 335 344 352 358 1 4 7 9 11 12 11 10 11 12 14 16 18 19 20 22 23 24 24 25 26 26 26 27 28 30 31 33 34 34 34 34 34 35 37 41 45 47 48 47 47 47 47 48 49 51 52 53 55 56 58 60 61 63 67 83 138 185 195 198 200 202 204 206 208 209 209 209 208 208 207 207 207 207 207 207 207 207 207 208
298 318 331 343 349 355 1 3 4 6 8 7 6 7 8 10 12 15 17 19 20 22 24 24 25 26 27 28 28 29 30 32 33 34 35 35 35 35 34 35 38 42 46 48 48 48 48 48 48 49 50 52 52 53 53 53 53 54 55 55 56 58 86 197 204 203 204 205 208 210 212 213 214 214 213 212 211 210 210 209 209 209 208 208 209
278 299 316 335 344 349 355 359 1 3 4 4 4 5 5 6 9 11 13 16 19 20 23 25 26 27 28 29 29 29 31 32 34 35 36 37 37 36 35 35 36 39 44 48 49 49 49 48 48 48 49 51 51 52 51 50 49 50 50 49 48 48 50 68 191 201 203 205 207 209 211 214 217 218 218 217 216 215 214 213 212 211 211 210 210
261 288 311 327 336 343 349 354 359 3 3 2 2 3 4 5 7 9 12 15 17 19 22 24 25 27 29 30 30 30 31 32 34 36 37 38 38 37 37 36 36 37 41 46 49 49 49 49 48 48 48 49 50 50 50 49 47 46 46 46 46 48 52 59 78 141 186 199 203 204 205 209 212 215 217 218 218 218 218 217 216 215 214 212 212
253 278 304 319 328 339 347 353 359 2 2 1 3 4 3 4 6 8 10 14 17 19 21 23 24 26 28 29 30 30 31 32 33 35 36 38 38 38 37 37 37 37 39 43 47 49 49 49 49 48 47 47 48 49 50 49 47 45 44 45 46 48 51 55 60 71 109 163 183 192 197 201 205 207 208 210 212 214 215 215 216 216 215 214 214
251 272 290 307 325 336 344 353 0 1 358 359 4 7 6 6 7 8 10 12 15 18 20 22 23 25 27 29 30 31 32 32 33 34 36 38 38 38 37 37 36 37 38 41 45 48 49 50 50 49 47 46 46 47 48 49 48 46 46 46 46 48 50 52 55 59 70 95 131 159 179 189 195 198 199 201 203 204 206 208 210 212 213 214 215